Skip Page Navigation
NASA JPL Caltech
NASA Logo - Jet Propulsion Laboratory + View the NASA Portal
+ Center for Near-Earth Object Studies
JPL Home Earth Solar System Stars & Galaxies Technology
JPL Solar System Dynamics
BODIES ORBITS EPHEMERIDES TOOLS PHYSICAL DATA DISCOVERY FAQ SITE MAP
JPL Small-Body Database Browser
Search: [ help ]  
305277 (2007 YK60)
Classification: Main-belt Asteroid          SPK-ID: 2305277
Ephemeris | Orbit Diagram | Orbital Elements | Mission Design | Physical Parameters | Discovery Circumstances | Close-Approach Data ]

[ show orbit diagram ]
Orbital Elements at Epoch 2459000.5 (2020-May-31.0) TDB
Reference: JPL 8 (heliocentric ecliptic J2000)
 Element Value Uncertainty (1-sigma)   Units 
e .2952135065901357 6.7305e-08  
a 2.760881510490638 3.2388e-08 au
q 1.945831998498826 1.9387e-07 au
i 10.80674551330331 1.2037e-05 deg
node 50.98577175610779 4.4245e-05 deg
peri 95.63500682498825 5.2108e-05 deg
M 230.4629675372439 2.3779e-05 deg
tp 2459603.422542978866
(2022-Jan-23.92254298)
0.00011737 TDB
period 1675.598949163805
4.59
2.9485e-05
8.073e-08
d
yr
n .2148485472491226 3.7806e-09 deg/d
Q 3.57593102248245 4.195e-08 au
  Orbit Determination Parameters
   # obs. used (total)      128  
   data-arc span      6525 days (17.86 yr)  
   first obs. used      1999-02-18  
   last obs. used      2016-12-30  
   planetary ephem.      DE431  
   SB-pert. ephem.      SB431-N16  
   condition code      0  
   norm. resid. RMS      .59193  
   source      ORB  
   producer      Otto Matic  
   solution date      2020-Feb-25 17:53:26  

Additional Information
 Earth MOID = .992065 au 
 Jupiter MOID = 1.59828 au 
 T_jup = 3.252 
[ show covariance matrix ]

Ephemeris | Orbit Diagram | Orbital Elements | Mission Design | Physical Parameters | Discovery Circumstances | Close-Approach Data ]

Physical Parameter Table
Parameter Symbol Value Units Sigma Reference Notes
absolute magnitude H 16.9   n/a MPO397064  

305277 (2007 YK60)          Discovered 2007-Dec-30 by CSS at Catalina
Reference: 20111110/Numbers.arcLast Updated: 2011-11-14

[ show close-approach data ]
Alternate Designations
 2007 YK60 = 2004 GH80 
Ephemeris | Orbit Diagram | Orbital Elements | Mission Design | Physical Parameters | Discovery Circumstances | Close-Approach Data ]
ABOUT SSD CREDITS/AWARDS PRIVACY/COPYRIGHT GLOSSARY LINKS
FirstGov 2020-Aug-05 00:07 UT
(server date/time)  
NASA Home Page
Site Manager:   Ryan S. Park
Webmaster  Alan B. Chamberlin